Weather observations for the past three days for
Caldwell, Caldwell Municipal Airport
Imperial (Metric)
Date Time (cdt) Wind (mph) Vis. (mi.) Weather Sky Cond. Temperature (ºF) Relative Humidity Wind Chill (°F) Heat Index (°F) Pressure Precipitation (in)
Air Dwpt 6 hour altimeter (in) sea level (mb) 1 hr 3 hr 6 hr
Max. Min.
19 10:55 N 6 10.00 Mostly Cloudy SCT023 BKN028 82.9 72.5 71% 88 30.08 0.0
19 10:35 NE 5 10.00 Mostly Cloudy SCT020 BKN028 82.2 72.5 73% 87 30.08 0.0
19 10:15 Calm 10.00 Mostly Cloudy BKN020 BKN026 BKN110 81 72.9 76% 86 30.09 0.0
19 09:55 E 3 10.00 Mostly Cloudy BKN018 BKN110 80.1 72.9 79% 84 30.09 0.0
19 09:35 Calm 10.00 Mostly Cloudy BKN016 80.1 73 79% 84 30.09 0.0
19 09:15 NE 5 10.00 Mostly Cloudy BKN016 BKN120 80.1 72.3 77% 84 30.09 0.0
19 08:55 E 5 10.00 Thunderstorm in Vicinity SCT012 79 73.4 83% 82 30.09 0.0
19 08:35 NE 5 10.00 Thunderstorm in Vicinity SCT009 78.6 73.9 86% 82 30.07 0.0
19 08:15 N 6 10.00 Partly Cloudy SCT120 77.5 74.3 90% 79 30.06 0.0
19 07:55 Calm 10.00 Partly Cloudy SCT120 76.5 73.8 91% 77 30.06 0.0
19 07:35 N 3 10.00 Mostly Cloudy BKN120 76.3 73.8 92% 76 30.05 0.0
19 07:15 N 3 10.00 Overcast OVC120 76.3 73.8 92% 76 30.05 0.0
19 06:55 N 5 10.00 Overcast SCT028 OVC120 76.1 73.8 78.6 74.3 93% 76 30.04 0.0
19 06:35 N 5 10.00 Overcast OVC026 76.3 73.6 91% 76 30.03 0.0
19 06:15 Calm 10.00 Overcast OVC024 76.1 73.4 91% 76 30.03 0.0
19 05:55 N 6 10.00 Overcast OVC020 75.9 72.9 90% 76 30.02 0.0
19 05:35 N 3 10.00 Overcast BKN020 OVC120 75.4 72 89% 75 30.02 0.0
19 05:15 N 5 10.00 Mostly Cloudy BKN120 75 71.2 88% 74 30.02 0.0
19 04:55 N 5 10.00 Overcast SCT019 OVC120 74.8 71.4 89% 30.02 0.0
19 04:35 N 5 10.00 Thunderstorm in Vicinity SCT019 OVC120 74.7 72 91% 30.01 0.0
19 04:15 Calm 10.00 Thunderstorm in Vicinity SCT019 OVC110 74.7 71.8 91% 30.02 0.0
19 03:55 Calm 10.00 Overcast SCT019 OVC110 75 71.4 89% 74 30.02 0.0
19 03:35 W 5 10.00 Thunderstorm in Vicinity SCT019 OVC110 75 70.9 87% 75 30.03 0.0
19 03:15 W 5 10.00 Thunderstorm in Vicinity SCT029 OVC110 75.7 71.1 85% 76 30.02 0.0
19 02:55 W 5 10.00 Thunderstorm SCT020 BKN029 OVC110 76.5 71.8 86% 77 30.03 0.0
19 02:35 NW 7 10.00 Overcast OVC018 76.8 71.4 83% 78 30.02 0.0
19 02:15 NW 9 10.00 Mostly Cloudy SCT011 BKN014 BKN020 77.4 72.9 86% 79 30.04 0.0
19 01:55 N 3 10.00 Thunderstorm in Vicinity SCT036 SCT110 78.3 75.2 90% 81 30.04 0.0
19 01:35 N 3 10.00 Thunderstorm in Vicinity SCT033 78.4 75.2 90% 82 30.03 0.0
19 01:15 NE 5 10.00 Partly Cloudy SCT030 SCT100 SCT120 78.4 75.2 90% 82 30.03 0.0
19 00:55 NE 5 10.00 Thunderstorm in Vicinity BKN030 OVC120 78.4 75.6 90.5 77.7 91% 82 30.03 0.0 0.21
19 00:35 NE 3 10.00 Mostly Cloudy SCT030 BKN120 78.6 75.6 90% 82 30.03 0.0
19 00:15 NE 3 10.00 Partly Cloudy SCT120 78.6 75.6 90% 82 30.03 0.0
18 23:55 E 3 10.00 Mostly Cloudy BKN120 78.8 75.9 91% 83 30.03 0.0
18 23:35 NE 3 10.00 Mostly Cloudy SCT090 SCT100 BKN120 78.6 76.3 93% 82 30.03 0.0
18 23:15 NE 3 10.00 Partly Cloudy SCT090 78.6 76.5 93% 82 30.03 0.0
18 22:55 N 3 10.00 Fair CLR 78.6 76.3 93% 82 30.03 0.0
18 21:55 Calm 10.00 Partly Cloudy SCT045 77.9 76.1 94% 80 30.01 0.0 0.09 0.21
18 21:35 Calm 10.00 Partly Cloudy SCT044 SCT085 SCT120 78.6 75.4 90% 82 30 0.0 0.08
18 21:15 SE 9 10.00 Mostly Cloudy SCT018 SCT041 BKN060 80.2 74.3 82% 85 29.99 0.0 0.08
18 20:55 E 10 4.00 Mostly Cloudy with Haze SCT012 SCT024 BKN060 82.8 75.2 78% 90 30 0.0 0.11
18 20:35 SE 5 10.00 Fair CLR 84.4 74.7 73% 92 29.98 0.0
18 20:15 E 7 10.00 Partly Cloudy SCT060 85.8 73.8 67% 94 29.97 0.0
18 19:55 E 3 10.00 Partly Cloudy SCT060 86.9 73.6 65% 95 29.97 0.0
18 19:35 E 6 10.00 Partly Cloudy SCT060 88.5 73 60% 96 29.96 0.0
18 19:15 E 6 10.00 Partly Cloudy SCT047 SCT060 90 72.3 56% 98 29.96 0.0
18 18:55 E 5 10.00 Partly Cloudy SCT060 90.5 72.7 91.9 85.5 56% 99 29.96 0.0
18 18:35 E 3 10.00 Partly Cloudy SCT048 SCT060 91 72.5 55% 99 29.95 0.0
18 18:15 NE 6 10.00 Partly Cloudy SCT048 90.9 71.4 53% 98 29.95 0.0
18 17:55 E 6 10.00 Fair CLR 91.2 72.1 54% 99 29.96 0.0
18 17:35 NE 7 10.00 Partly Cloudy SCT048 91.4 70 50% 97 29.96 0.0
18 17:15 N 5 10.00 Partly Cloudy SCT048 90.9 70.7 52% 97 29.96 0.0
18 16:55 N 5 10.00 Fair CLR 91.6 72.3 53% 100 29.97 0.0
18 16:35 N 9 10.00 Partly Cloudy SCT044 91 72.5 55% 99 29.97 0.0
18 16:15 NW 9 10.00 Partly Cloudy SCT044 90.7 72.3 55% 98 29.97 0.0
18 15:55 N 10 10.00 Fair CLR 91 72.3 54% 99 29.98 0.0
18 15:35 NW 10 10.00 Fair CLR 91.2 72.5 54% 99 29.99 0.0
18 15:15 NW 15 G 20 10.00 Fair CLR 90.7 72.1 55% 98 30 0.0
18 14:35 N 13 10.00 Fair CLR 89.8 75.6 63% 101 30.01 0.0
18 14:15 NW 10 G 18 10.00 Fair CLR 89.4 75.4 63% 100 30.01 0.0
18 13:55 NW 12 10.00 Fair CLR 88.3 75.2 65% 98 30.02 0.0
18 13:35 NW 6 G 18 10.00 Partly Cloudy SCT024 87.1 74.7 67% 96 30.04 0.0
18 13:15 W 9 10.00 Partly Cloudy SCT024 86.4 74.1 67% 95 30.05 0.0
18 12:55 W 8 10.00 Fair CLR 85.3 73.8 85.8 72.3 69% 93 30.06 0.0 0.46
18 12:35 W 10 10.00 Fair CLR 83.7 73.4 71% 90 30.07 0.0
18 12:15 SW 9 10.00 Fair CLR 82 73.4 75% 88 30.08 0.0
18 11:55 SW 9 10.00 Partly Cloudy SCT011 79.7 73 80% 84 30.09 0.0
18 11:35 SW 10 10.00 Mostly Cloudy SCT011 BKN060 77.7 72.1 83% 80 30.11 0.0
18 11:15 SW 9 10.00 Overcast BKN009 OVC060 77 72.7 87% 78 30.12 0.0
18 10:55 SW 9 10.00 Overcast OVC007 75.4 72.3 90% 75 30.12 0.0
18 10:35 SW 12 G 17 10.00 Overcast BKN007 BKN041 OVC065 75.2 72.3 91% 74 30.12 0.0
18 10:15 SW 9 10.00 Mostly Cloudy SCT007 SCT041 BKN065 74.8 72.9 94% 30.11 0.0
18 09:55 S 6 10.00 Thunderstorm in Vicinity CLR 73.9 72.3 95% 30.15 0.0 0.46
18 09:15 S 8 10.00 Mostly Cloudy SCT003 BKN080 72.9 71.4 95% 30.13 0.0
18 08:55 S 6 10.00 Thunderstorm in Vicinity SCT003 OVC080 72.7 71.2 95% 30.09 0.0 0.08
18 08:35 SE 7 10.00 Thunderstorm SCT003 BKN080 OVC100 72.7 71.1 95% 30.07 0.0 0.08
18 08:15 S 7 10.00 Thunderstorm SCT037 BKN075 OVC100 72.7 70.9 94% 30.05 0.0 0.04
18 07:55 S 5 10.00 Thunderstorm SCT060 SCT075 OVC100 72.7 70.9 94% 30.04 0.0 0.35
18 07:35 Calm 10.00 Thunderstorm SCT038 BKN075 OVC085 72.5 70.7 94% 30.03 0.0 0.33
18 07:15 W 10 5.00 Thunderstorm SCT007 BKN020 OVC039 72.5 70.7 94% 30.04 0.0 0.28
18 06:55 N 12 G 29 3.50 Thunderstorm SCT007 OVC015 72.9 70.7 81.3 72.9 93% 30.05 0.0 0.34 0.34
18 06:35 N 12 G 21 10.00 Thunderstorm Light Rain BKN012 OVC050 75.6 70.3 84% 76 30.06 0.0 0.04
18 06:15 Calm 10.00 Thunderstorm in Vicinity BKN055 BKN070 OVC110 79.7 75.6 87% 84 30.01 0.0
18 05:55 SW 8 10.00 Partly Cloudy SCT080 SCT110 79.5 75.6 88% 84 29.99 0.0
18 05:35 SW 7 10.00 Mostly Cloudy SCT050 BKN055 BKN070 79.5 75.6 88% 84 29.99 0.0
18 05:15 SW 7 10.00 Mostly Cloudy BKN050 79.5 75.7 88% 84 30 0.0
18 04:55 SW 6 10.00 Fair CLR 79.2 75.6 89% 83 29.98 0.0
18 04:35 SW 7 10.00 Thunderstorm in Vicinity SCT050 SCT100 79.3 75.6 88% 84 29.98 0.0
18 04:15 SW 8 10.00 Mostly Cloudy BKN050 BKN065 79.7 75.6 87% 84 29.99 0.0
18 03:55 SW 6 10.00 Partly Cloudy SCT060 79.5 75.2 87% 84 29.99 0.0
18 03:35 SW 7 10.00 Partly Cloudy SCT060 79.5 75 86% 84 29.99 0.0
18 03:15 SW 5 10.00 Partly Cloudy SCT060 SCT070 79.7 75.2 86% 84 30 0.0
18 02:55 SW 3 10.00 Partly Cloudy SCT060 80.1 75.2 85% 85 30 0.0
18 02:35 S 6 10.00 Mostly Cloudy BKN060 80.4 75 84% 86 30 0.0
18 02:15 S 6 10.00 Fair CLR 80.4 75 84% 86 30.01 0.0
18 01:55 S 7 10.00 Fair CLR 80.6 74.8 83% 86 30.01 0.0
18 01:35 S 7 10.00 Fair CLR 80.8 74.7 82% 86 30.01 0.0
18 01:15 S 7 10.00 Fair CLR 81 74.5 81% 86 30.01 0.0
18 00:55 S 9 10.00 Fair CLR 81.3 74.3 91.2 81.3 79% 87 30.01 0.0
18 00:35 S 6 10.00 Fair CLR 81.7 74.3 78% 88 30.01 0.0
18 00:15 S 9 10.00 Fair CLR 81.9 74.3 78% 88 30 0.0
17 23:55 SE 9 10.00 Fair CLR 81.7 75 80% 88 30 0.0
17 23:35 S 12 10.00 Fair CLR 82 75 79% 89 30 0.0
17 23:15 SE 9 10.00 Fair CLR 82.2 75 79% 89 30.01 0.0
17 22:55 S 9 10.00 Fair CLR 83.1 74.8 76% 90 30.01 0.0
17 22:35 SE 9 10.00 Fair CLR 84 74.5 73% 92 30.01 0.0
17 22:15 SE 10 10.00 Partly Cloudy SCT070 84.6 74.5 72% 92 30 0.0
17 21:55 S 6 10.00 Partly Cloudy SCT070 SCT090 SCT110 85.5 74.7 70% 94 30 0.0
17 21:35 S 6 10.00 Partly Cloudy SCT120 85.5 74.8 71% 94 29.99 0.0
17 21:15 S 5 10.00 Fair CLR 84.6 75.7 75% 94 29.98 0.0
17 20:55 Calm 10.00 Fair CLR 85.1 74.7 71% 93 29.97 0.0
17 20:35 Calm 10.00 Fair CLR 86.5 74.3 67% 95 29.97 0.0
17 20:15 Calm 10.00 Fair CLR 87.1 74.1 65% 96 29.97 0.0
17 19:55 S 3 10.00 Fair CLR 89.1 72.9 59% 97 29.96 0.0
17 19:35 SE 5 10.00 Fair CLR 90.1 72.7 57% 98 29.96 0.0
17 19:15 SE 7 10.00 Fair CLR 90.9 72.7 55% 99 29.96 0.0
17 18:55 E 6 10.00 Fair CLR 91.4 71.6 96.8 91.2 52% 99 29.95 0.0
17 18:35 SE 7 10.00 Partly Cloudy SCT060 92.3 71.8 51% 100 29.96 0.0
17 18:15 S 9 10.00 Partly Cloudy SCT060 93.6 72.1 50% 102 29.96 0.0
17 17:55 SE 8 10.00 Partly Cloudy SCT065 94.3 71.2 47% 102 29.96 0.0
17 17:35 SE 6 10.00 Mostly Cloudy SCT055 SCT075 BKN095 93.7 71.4 48% 101 29.97 0.0
17 17:15 SE 6 10.00 Mostly Cloudy BKN055 BKN075 94.3 70.2 46% 101 29.97 0.0
17 16:55 S 12 10.00 Mostly Cloudy BKN055 BKN075 BKN085 94.3 70.9 47% 101 29.96 0.0
17 16:35 SE 6 10.00 Mostly Cloudy BKN055 BKN065 BKN085 94.5 71.2 47% 102 29.96 0.0
17 16:15 S 9 G 17 10.00 Mostly Cloudy SCT055 BKN065 BKN075 94.8 71.4 47% 103 29.95 0.0
17 15:55 SE 8 10.00 Mostly Cloudy SCT060 BKN075 93.6 70.9 48% 101 29.95 0.0
17 15:35 S 6 G 16 10.00 Partly Cloudy SCT060 95 72 47% 103 29.94 0.0
17 15:15 S 8 10.00 Mostly Cloudy BKN060 94.1 71.1 47% 101 29.95 0.0
17 14:55 S 7 10.00 Overcast BKN060 OVC070 94.6 70.7 46% 102 29.97 0.0
17 14:35 W 3 10.00 Mostly Cloudy BKN060 BKN070 BKN080 94.6 70.7 46% 102 29.98 0.0
17 14:15 SE 8 10.00 Partly Cloudy SCT050 SCT065 92.8 70.3 48% 99 29.99 0.0
17 13:55 SW 5 10.00 Mostly Cloudy BKN050 BKN065 93.9 70.3 46% 100 30 0.0
17 13:35 SW 5 10.00 Mostly Cloudy BKN050 92.7 70.5 49% 99 30.01 0.0
17 13:15 W 3 10.00 Mostly Cloudy SCT047 BKN055 92.8 71.1 49% 100 30.01 0.0
17 12:55 W 3 10.00 Partly Cloudy SCT047 92.8 71.2 93.4 74.7 49% 100 30.02 0.0
17 12:35 S 9 10.00 Partly Cloudy SCT049 92.7 70.9 49% 99 30.03 0.0
17 12:15 SW 5 10.00 Fair CLR 92.3 70.9 50% 99 30.03 0.0
17 11:55 SW 7 10.00 Fair CLR 91.6 70.9 51% 98 30.04 0.0
17 11:35 W 8 10.00 Fair CLR 91.2 71.4 52% 98 30.03 0.0
17 11:15 SW 7 10.00 Fair CLR 90.3 73.4 58% 99 30.03 0.0
17 10:55 SW 6 10.00 Fair CLR 89.1 73 59% 97 30.03 0.0
17 10:35 S 9 10.00 Fair CLR 88.2 73 61% 96 30.03 0.0
17 10:15 SW 10 10.00 Fair CLR 87.1 73.8 65% 95 30.03 0.0
17 09:55 SW 7 10.00 Fair CLR 86.4 73.8 66% 94 30.03 0.0
17 09:35 SW 12 G 17 10.00 Partly Cloudy SCT017 84.7 75 73% 93 30.03 0.0
17 09:15 SW 7 10.00 Partly Cloudy SCT013 SCT018 83.7 75.6 77% 92 30.03 0.0
17 08:55 SW 8 10.00 Mostly Cloudy BKN009 BKN013 82.2 76.5 83% 90 30.03 0.0
17 08:35 S 7 10.00 Mostly Cloudy SCT007 BKN011 80.4 76.5 88% 86 30.03 0.0
17 08:15 S 3 10.00 Partly Cloudy SCT003 SCT011 78.4 76.1 93% 82 30.03 0.0
17 07:55 SE 3 10.00 Partly Cloudy SCT003 SCT011 77.2 75.9 96% 78 30.03 0.0
17 07:35 Calm 10.00 Partly Cloudy SCT009 76.3 75 96% 76 30.02 0.0
17 07:15 Calm 10.00 Fair CLR 75.4 74.1 96% 74 30.01 0.0
17 06:55 Calm 1.50 Fog/Mist VV007 74.8 73.6 80.2 74.7 96% 30.01 0.0
17 06:35 Calm 10.00 Fair CLR 74.8 73.6 96% 30.01 0.0
17 06:15 Calm 10.00 Fair CLR 75.6 74.1 95% 74 30.01 0.0
17 05:55 Calm 10.00 Fair CLR 75.6 74.1 95% 74 30 0.0
17 05:35 Calm 10.00 Fair CLR 76.5 75 95% 77 30 0.0
17 05:15 SW 3 10.00 Fair CLR 76.6 75 95% 77 30 0.0
17 04:55 SW 3 10.00 Fair CLR 76.8 75 94% 78 30 0.0
17 04:35 SW 3 10.00 Fair CLR 77.2 75.4 94% 78 29.99 0.0
17 04:15 S 5 10.00 Partly Cloudy SCT015 77.2 75.4 94% 78 29.99 0.0
17 03:55 S 5 10.00 Fair CLR 77.5 75.6 94% 79 29.99 0.0
17 03:35 SW 5 10.00 Fair CLR 77.9 75.7 93% 80 30 0.0
17 03:15 S 5 10.00 Fair CLR 78.3 75.7 92% 81 29.99 0.0
17 02:55 S 5 10.00 Fair CLR 78.4 75.7 91% 82 29.98 0.0
17 02:35 S 7 10.00 Fair CLR 78.8 75.9 91% 83 29.97 0.0
17 02:15 S 7 10.00 Fair CLR 79 75.7 90% 83 29.97 0.0
17 01:55 S 9 10.00 Fair CLR 79.3 75.9 89% 84 29.97 0.0
17 01:35 S 9 10.00 Partly Cloudy SCT015 79.7 75.7 88% 85 29.97 0.0
17 01:15 S 9 10.00 Partly Cloudy SCT013 80.1 75.7 87% 85 29.97 0.0
17 00:55 S 10 10.00 Fair CLR 80.4 75.6 92.5 80.2 85% 86 29.96 0.0
17 00:35 S 12 10.00 Fair CLR 80.6 75.2 84% 86 29.96 0.0
17 00:15 S 9 10.00 Fair CLR 81.1 75 82% 87 29.97 0.0
16 23:55 S 7 10.00 Fair CLR 81.7 75.2 81% 88 29.97 0.0
16 23:35 S 13 10.00 Fair CLR 82.4 75.2 79% 89 29.97 0.0
16 23:15 S 8 10.00 Fair CLR 82.4 75.2 79% 89 29.96 0.0
16 22:55 S 7 10.00 Fair CLR 82.9 75 77% 90 29.95 0.0
16 22:35 S 9 10.00 Fair CLR 84 75 74% 92 29.94 0.0
16 22:15 S 10 10.00 Fair CLR 84.7 74.5 71% 93 29.94 0.0
16 21:55 S 10 10.00 Fair CLR 85.3 73.9 69% 93 29.93 0.0
16 21:35 S 9 10.00 Fair CLR 85.3 74.1 69% 93 29.93 0.0
16 21:15 S 10 10.00 Fair CLR 86 73.9 67% 94 29.93 0.0
16 20:55 SE 8 10.00 Fair CLR 86.2 73.4 66% 94 29.93 0.0
16 20:35 SE 7 10.00 Fair CLR 87.3 72.7 62% 94 29.93 0.0
16 20:15 SE 8 10.00 Fair CLR 88.7 71.8 57% 95 29.93 0.0
16 19:55 SE 8 10.00 Fair CLR 90.3 70.9 53% 97 29.92 0.0
16 19:35 SE 9 10.00 Fair CLR 91.4 69.8 49% 97 29.92 0.0
16 19:15 SE 12 10.00 Fair CLR 92.1 70.5 49% 98 29.92 0.0
16 18:55 SE 13 G 17 10.00 Fair CLR 92.7 72 96.3 91.2 51% 101 29.92 0.0
16 18:35 SE 12 10.00 Fair CLR 93 71.6 50% 101 29.92 0.0
16 18:15 SE 10 10.00 Partly Cloudy SCT055 93.4 72 50% 101 29.92 0.0
16 17:55 SE 13 10.00 Partly Cloudy SCT060 93.7 72 49% 102 29.92 0.0
16 17:35 SE 14 10.00 Fair CLR 93.9 71.2 48% 101 29.93 0.0
16 17:15 S 10 G 17 10.00 Partly Cloudy SCT060 95.4 70.9 45% 103 29.93 0.0
16 16:55 S 9 G 17 10.00 Partly Cloudy SCT060 94.8 70.2 45% 101 29.93 0.0
16 16:35 SE 16 G 22 10.00 Partly Cloudy SCT060 95 71.6 47% 103 29.93 0.0
16 16:15 SE 13 10.00 Partly Cloudy SCT060 94.1 71.6 48% 102 29.94 0.0
16 15:55 S 10 10.00 Partly Cloudy SCT050 94.1 70.7 47% 101 29.94 0.0
16 15:35 S 14 10.00 Mostly Cloudy BKN050 94.8 71.6 47% 103 29.95 0.0
16 15:15 S 14 10.00 Mostly Cloudy BKN050 94.3 72.1 49% 103 29.95 0.0
16 14:55 S 13 10.00 Mostly Cloudy BKN050 94.6 71.8 48% 103 29.96 0.0
16 14:35 SW 7 10.00 Partly Cloudy SCT050 94.1 71.6 48% 102 29.97 0.0
16 14:15 SE 7 10.00 Partly Cloudy SCT050 94.5 72.3 49% 103 29.98 0.0
16 13:55 SW 6 10.00 Partly Cloudy SCT046 94.6 72 48% 103 29.98 0.0
16 13:35 S 10 10.00 Partly Cloudy SCT044 93.2 71.6 50% 101 29.99 0.0
16 13:15 SW 7 10.00 Partly Cloudy SCT042 91.9 72 52% 100 29.99 0.0
16 12:55 S 8 G 18 10.00 Partly Cloudy SCT040 92.1 72.3 93.2 75 52% 100 30 0.0
16 12:35 S 8 10.00 Partly Cloudy SCT040 91.6 72.1 53% 99 30.01 0.0
16 12:15 S 9 10.00 Partly Cloudy SCT038 90.7 72.1 55% 98 30.01 0.0
16 11:55 S 13 G 18 10.00 Partly Cloudy SCT034 90.7 73 56% 99 30.01 0.0
16 11:35 SW 13 10.00 Mostly Cloudy BKN032 88 72.3 60% 95 30.02 0.0
Date Time (cdt) Wind (mph) Vis. (mi.) Weather Sky Cond. Air Dwpt Max. Min. Relative Humidity Wind Chill (°F) Heat Index (°F) altimeter (in) sea level (mb) 1 hr 3 hr 6 hr
6 hour
Temperature (ºF) Pressure Precipitation (in)